{"data":{"norad_id":55293,"epoch":"2026-05-25T03:46:26.627232Z","epoch_age_seconds":64546,"freshness":"FRESH","line1":"1 55293U 23010AA  26145.15725263 -.00000122  00000+0 -24194-5 0  9990","line2":"2 55293  69.9984 191.6370 0003676 267.8330  92.2408 14.98331103184729","mean_motion":14.98331103,"eccentricity":0.0003676,"inclination_deg":69.9984,"raan_deg":191.637,"arg_perigee_deg":267.833,"mean_anomaly_deg":92.2408,"bstar":-2.4194e-6,"rev_number":18472,"period_min":96.106928376298,"perigee_km":569.49759035714,"apogee_km":574.60736966285,"semimajor_km":6950.18948001,"source":"CELESTRAK","updated_at":"2026-05-25T13:38:17.735663Z"}}